Probability
3 13 25 25 23 26 30 31 30 28 26 22 19 15 12 10 8 7 7 6 5 3 1 0 0 1 2 1 1 1 0 0 0 0 0 0 0 0 0 0 0 0 0
6 16 29 31 28 30 32 33 32 31 28 24 21 17 14 12 10 8 7 5 4 3 2 2 1 2 3 2 2 1 0 0 0 0 0 0 0 0 0 0 0 0 1
14 20 30 35 35 35 36 36 35 34 31 28 25 22 18 14 11 9 7 4 3 3 3 4 3 3 3 1 1 1 0 0 0 0 0 0 0 0 0 0 0 0 1
19 22 28 34 39 40 40 37 35 33 31 30 29 26 21 16 12 9 6 5 4 4 4 4 4 3 1 0 0 0 0 0 0 0 0 0 0 0 0 0 0 0 1
22 25 29 34 40 43 41 37 34 32 30 29 29 27 21 15 11 8 6 6 6 6 5 5 4 3 1 0 0 0 0 0 0 0 0 0 0 0 0 0 1 1 1
25 28 32 36 39 41 41 39 37 33 30 27 26 23 19 14 10 7 6 6 6 6 6 6 5 4 2 1 0 0 0 0 0 0 0 0 1 1 0 1 1 1 1
24 27 32 37 41 42 42 42 39 35 31 28 24 20 16 12 8 6 6 6 6 6 6 6 6 5 4 1 0 0 0 0 0 0 0 1 2 2 2 3 4 3 2
22 24 28 35 42 45 45 42 38 36 34 30 24 17 14 11 7 5 4 5 6 6 6 6 6 6 5 3 1 1 1 1 0 0 0 1 3 3 3 4 6 6 5
23 23 25 29 37 42 43 39 36 35 35 31 23 17 13 10 7 5 4 5 5 6 6 6 6 6 6 5 4 3 3 2 1 1 1 2 2 2 2 3 5 7 8
21 21 22 25 28 32 35 35 35 35 35 32 26 19 14 11 10 8 6 5 5 4 5 6 6 6 6 6 6 6 5 4 3 2 3 3 2 1 2 3 4 6 8
16 17 19 22 23 25 28 31 33 34 34 33 29 25 19 15 13 11 8 7 5 5 6 7 7 7 7 7 6 7 7 6 4 3 3 3 3 2 3 5 6 7 7
13 14 16 18 20 23 26 28 30 33 33 31 30 27 22 17 14 12 10 8 7 6 7 8 7 7 7 7 6 7 7 6 6 4 3 3 4 4 5 8 11 10 8
13 14 15 16 18 22 26 27 29 31 31 28 26 24 20 16 14 11 10 9 8 7 8 8 8 7 7 7 6 6 6 6 6 6 4 4 5 7 8 10 13 12 9
14 16 17 17 18 20 23 24 25 26 26 24 21 19 16 14 12 10 9 8 8 7 7 7 7 7 7 6 5 5 4 4 6 6 6 6 7 8 9 9 11 11 10
15 16 18 19 18 19 19 20 19 19 18 18 17 16 16 15 12 8 6 6 5 5 5 5 5 6 6 6 5 4 3 4 6 6 6 6 7 8 7 5 6 9 9
17 17 16 17 18 18 17 17 16 15 14 15 15 14 15 15 13 8 5 3 3 3 3 3 3 4 4 5 4 3 3 4 6 6 6 6 6 7 6 4 4 6 8
19 18 17 16 17 17 15 15 15 13 13 14 14 12 13 14 12 8 4 3 3 2 3 3 3 3 3 3 2 2 4 5 6 6 6 5 5 6 7 6 6 8 9
22 21 19 18 18 16 14 13 13 11 11 13 13 12 12 12 11 8 6 3 2 1 1 2 3 3 3 3 2 2 3 5 6 5 4 4 4 5 7 9 9 11 11
25 22 19 19 18 16 14 13 11 10 10 11 12 13 13 14 12 9 7 5 2 0 0 1 1 3 3 3 3 3 4 4 4 4 3 3 3 3 5 8 9 11 11
24 22 19 19 19 17 15 13 11 11 11 11 12 12 14 14 13 10 8 6 4 2 1 0 1 2 2 2 2 3 4 5 4 3 3 3 1 1 2 3 6 7 8
21 21 20 19 19 19 16 14 12 11 11 12 12 12 13 13 12 10 8 7 5 4 2 1 1 1 1 1 1 1 3 4 4 3 3 3 1 0 0 1 2 3 4
17 19 19 18 18 18 16 13 11 11 11 12 12 12 12 11 10 8 7 5 4 4 3 2 1 0 0 0 0 0 1 2 2 2 2 2 1 0 0 0 0 1 1
13 15 15 14 15 16 15 12 11 11 10 10 11 11 11 10 8 7 5 3 2 2 1 1 1 0 0 0 0 0 0 0 1 1 1 1 1 0 0 0 0 0 0
11 11 11 10 11 12 12 12 12 12 10 9 9 9 9 9 7 5 4 2 1 1 1 0 0 0 0 0 0 0 0 0 0 0 0 0 0 0 0 0 0 0 0
11 10 10 8 7 6 8 9 10 10 10 8 8 8 8 7 6 4 3 2 1 0 0 0 0 0 0 0 0 0 0 0 0 0 0 0 0 0 0 0 0 0 0
10 11 11 9 5 4 5 7 7 8 9 8 7 7 7 6 6 4 3 2 1 0 0 0 0 0 0 0 0 0 0 0 0 0 0 0 0 0 0 0 0 0 0
Wind_Speed
7 9 16 16 16 16 16 16 16 16 16 17 16 16 15 15 14 13 13 12 11 10 9 8 7 7 6 6 5 5 4 4 4 4 4 4 4 4 5 6 6 5 6
11 12 17 17 16 16 16 16 16 16 16 16 16 15 15 14 13 12 12 11 10 9 8 7 7 6 5 5 5 4 3 3 3 3 4 3 4 4 5 6 6 4 7
12 11 14 17 17 16 16 16 15 16 15 15 15 15 14 13 12 11 11 10 9 8 7 6 6 5 4 4 3 3 2 2 2 2 2 1 1 4 5 6 7 7 7
12 10 11 17 16 16 16 15 15 15 15 14 14 14 13 12 11 11 10 9 8 7 6 5 5 4 4 3 2 2 2 2 2 1 1 0 1 4 5 6 7 8 8
10 9 11 17 16 15 15 15 15 14 14 13 13 13 12 11 11 10 9 8 7 6 5 5 4 4 3 3 2 1 2 2 2 1 0 1 2 4 6 7 8 8 8
9 8 10 16 15 15 14 14 14 13 13 12 12 11 11 10 10 9 8 7 7 6 5 4 4 3 3 2 2 2 2 2 1 0 1 1 2 5 6 7 8 9 9
8 6 8 15 14 14 13 13 13 12 12 11 10 10 9 9 8 8 7 6 6 5 5 4 3 3 2 2 2 2 2 3 1 1 1 2 3 5 6 7 8 9 10
8 6 6 13 14 14 13 13 12 11 10 10 9 9 9 8 7 7 6 5 5 4 4 3 3 2 2 2 2 2 2 2 1 1 2 2 3 5 7 7 7 8 10
7 6 4 5 8 12 12 12 11 10 9 9 9 8 8 7 6 6 5 5 4 4 4 3 3 2 2 3 3 3 2 2 1 1 2 2 4 5 6 7 8 8 9
6 5 4 3 3 4 6 10 10 10 9 9 8 8 7 6 5 4 4 4 4 4 4 4 3 3 3 3 3 3 2 2 1 2 2 3 5 6 6 6 7 8 9
5 4 4 3 3 3 3 6 7 8 8 7 6 6 5 2 2 2 3 4 4 4 4 4 3 2 2 3 3 3 3 1 1 2 2 4 5 6 6 6 6 7 9
6 5 4 4 4 4 4 3 2 3 3 2 2 2 2 1 1 2 2 4 4 4 4 4 3 2 2 1 2 2 1 2 2 2 3 5 6 7 7 7 7 7 8
6 5 4 4 3 4 3 3 2 2 2 2 2 1 1 1 1 1 0 1 2 3 2 2 2 1 0 1 1 1 2 2 2 2 3 6 7 7 8 8 7 7 7
5 5 4 4 4 3 3 3 2 2 2 2 2 2 1 1 1 0 0 1 1 1 1 1 1 1 1 1 2 2 2 2 2 2 3 6 6 6 7 8 8 8 8
5 5 4 4 4 4 3 3 3 2 2 3 2 2 2 2 1 1 0 0 0 1 1 1 1 1 1 2 2 2 3 3 3 3 3 6 6 6 6 7 7 8 8
6 5 4 5 4 4 3 3 3 3 2 2 2 2 3 2 2 1 0 0 0 1 1 1 2 2 2 2 2 3 3 3 3 3 3 4 6 5 6 6 7 7 8
6 5 5 5 4 4 4 4 3 3 3 3 2 2 2 2 2 1 1 1 1 1 1 1 1 1 1 2 2 3 2 3 3 3 3 3 3 5 6 6 6 7 8
5 5 6 5 5 5 4 3 2 2 2 2 2 2 2 2 2 2 1 1 1 0 1 1 1 1 1 1 2 3 2 3 4 4 3 3 3 3 5 6 7 7 8
5 5 5 4 5 5 4 2 1 1 1 1 2 2 2 2 2 2 1 1 1 0 1 1 1 1 2 2 3 3 3 3 3 4 4 4 4 3 3 5 7 7 8
3 3 4 3 3 3 2 2 1 1 0 1 1 2 2 2 2 2 1 1 1 1 1 1 1 1 2 2 3 3 3 3 3 3 4 3 3 4 4 3 3 5 7
3 3 3 3 3 3 2 2 2 2 1 1 1 2 2 2 2 1 1 1 1 1 1 1 1 1 1 1 1 3 3 3 3 3 2 2 3 3 3 3 2 3 3
2 2 3 3 3 3 3 2 2 1 1 1 1 1 2 2 2 2 2 2 1 1 1 1 1 1 1 0 1 1 3 3 2 3 2 2 3 2 3 3 3 3 3
2 2 2 3 3 3 3 2 2 1 1 0 0 1 1 1 2 2 2 2 2 2 2 3 2 2 2 1 1 2 1 3 3 3 3 3 3 2 3 3 3 4 4
2 2 2 2 2 2 3 3 3 2 2 2 1 1 1 1 1 2 2 2 3 2 3 4 3 3 3 2 1 2 2 2 2 3 3 3 3 3 4 3 4 4 4
2 2 2 2 2 2 3 3 3 2 1 1 1 1 1 1 1 2 2 3 3 3 3 4 3 3 3 3 3 2 2 2 3 3 4 4 3 3 4 4 4 4 4
1 1 1 2 2 2 2 3 3 3 2 2 2 2 2 1 2 2 3 3 3 3 3 4 4 4 3 4 4 3 3 3 3 3 4 4 4 4 4 4 4 4 4
Wind_Direction
162 159 157 153 149 144 138 132 128 125 124 123 124 125 127 130 132 133 135 135 136 135 133 132 129 126 122 119 119 119 118 125 135 150 162 170 173 172 173 177 172 168 167
152 157 156 154 150 146 140 135 131 128 126 126 127 129 130 132 134 136 137 138 138 138 137 136 134 130 124 120 119 120 123 129 143 160 174 172 177 181 185 186 182 177 174
146 153 155 154 151 147 142 138 134 132 131 130 130 131 133 134 137 138 138 139 140 140 141 141 140 135 129 127 127 130 139 148 163 182 166 118 189 198 201 199 190 185 182
144 147 153 154 151 147 143 140 137 136 136 135 135 136 136 138 138 139 141 142 143 144 146 146 146 141 139 141 142 147 162 183 191 184 106 137 227 217 217 210 199 192 188
140 143 155 155 152 149 146 144 143 142 141 140 139 140 141 142 142 143 146 148 148 147 148 151 150 147 151 154 160 177 202 214 210 187 185 235 243 238 227 216 208 201 196
138 142 156 156 154 152 150 148 147 145 144 144 143 144 144 145 147 150 153 155 155 155 158 163 161 160 167 172 182 202 225 230 191 168 249 256 246 239 230 220 212 208 202
137 138 153 156 156 155 154 152 149 147 147 146 147 148 149 152 152 155 160 162 163 163 169 174 174 179 190 198 216 223 229 240 172 200 246 262 254 247 235 227 220 213 208
135 134 147 159 159 157 156 155 152 150 149 150 154 159 160 160 160 165 169 172 174 180 186 186 183 193 214 225 240 252 245 256 231 240 253 261 261 248 234 231 229 221 215
124 127 134 150 160 162 159 157 155 154 155 160 164 168 168 170 174 180 181 189 195 199 204 206 208 214 231 244 250 261 263 274 256 251 261 256 262 253 240 236 232 225 218
117 123 124 131 140 147 156 163 162 162 165 169 171 171 172 180 188 191 192 202 213 224 228 226 224 233 246 254 257 264 275 282 274 267 266 262 261 254 247 243 237 232 223
135 131 127 131 134 134 147 168 167 171 173 175 175 176 176 178 188 202 204 209 232 244 246 246 237 241 258 266 262 268 280 272 270 264 261 267 263 257 251 247 239 236 230
159 161 149 152 156 153 166 153 145 158 157 150 135 159 156 155 188 196 213 225 237 244 254 257 251 252 263 279 279 280 264 262 260 263 264 270 265 260 251 245 240 241 235
162 163 161 163 166 162 155 143 146 142 134 131 138 160 153 154 181 198 200 269 279 274 287 302 299 287 238 241 252 249 242 248 251 261 269 272 265 259 253 246 243 242 240
154 166 162 168 161 161 150 149 149 145 145 143 146 155 154 167 193 222 217 255 287 291 291 310 283 257 248 248 245 245 248 247 251 256 265 273 273 264 254 245 243 243 240
161 171 173 169 166 162 152 148 145 145 146 147 156 171 166 171 182 206 268 294 305 305 284 274 261 246 248 257 258 257 259 256 259 262 273 277 277 272 263 253 247 247 245
172 174 170 172 170 159 158 158 155 158 157 159 174 182 170 168 168 171 208 241 279 273 269 263 263 254 251 249 261 266 264 262 257 257 263 277 276 272 268 261 258 257 253
175 170 172 174 165 163 167 171 163 167 165 173 181 174 161 161 157 158 198 241 255 261 265 264 274 270 268 265 266 269 266 265 262 257 258 261 273 272 269 265 261 257 253
170 171 181 177 171 173 174 177 167 162 163 175 167 166 169 167 163 159 196 250 258 246 252 251 265 280 284 285 279 275 271 264 261 261 253 252 258 268 274 271 267 263 259
173 174 177 176 174 179 176 164 147 141 170 188 164 171 183 180 173 168 196 233 226 213 250 266 286 254 267 281 274 269 270 264 261 264 260 254 253 256 259 271 270 268 263
160 167 172 171 170 164 149 122 103 103 170 207 188 195 192 192 183 177 196 221 210 210 256 262 275 271 255 266 282 288 281 273 265 261 261 262 259 258 256 261 270 269 263
134 157 164 171 169 152 157 164 169 192 212 223 218 213 202 198 186 173 200 225 222 230 245 249 245 275 288 292 309 316 307 288 275 266 266 270 273 268 265 262 262 259 262
148 177 173 172 168 168 176 172 174 164 200 217 234 228 206 197 200 199 189 212 226 236 259 256 235 247 276 243 165 338 321 316 295 276 276 265 272 274 274 270 262 257 256
165 185 191 184 183 178 166 134 103 85 63 66 243 254 247 226 218 206 201 210 226 223 238 242 227 213 241 253 194 179 205 260 295 293 267 265 269 268 271 275 265 260 253
189 172 173 180 178 173 162 164 172 182 207 230 226 236 281 269 253 225 214 213 226 231 236 243 227 216 213 238 237 216 216 208 242 293 294 272 269 262 264 269 270 264 257
158 166 172 162 160 171 175 173 171 182 209 234 243 253 277 283 268 255 240 229 233 236 238 243 239 229 216 217 217 215 225 223 219 234 281 295 287 263 254 254 257 259 257
121 151 151 146 189 189 177 173 174 183 198 220 237 240 264 270 265 252 254 247 245 246 248 248 245 238 232 228 228 217 211 215 218 216 248 272 279 276 265 254 251 252 251